Back to catalog

STARLINK-33873

AliveCommunicationsVLEO
NORAD 63655·PAYLOAD·🇺🇸 United States

Launched Apr 25, 2025 from Cape Canaveral Space Force Station

Loading…

Next Passes (next 24 hours)

TLE

FreshSource: CelesTrak SupGP

Epoch: Sep 14, 2026, 23:07 UTC

1 63655C 25083X   26257.96368056 -.00013565  00000+0 -49138-3 0  2574
2 63655  43.0036  16.4831 0001652 272.7065  13.6602 15.27580440    14

Track STARLINK-33873 in real time with AllMySat

Download on the App Store